Hourly Data Report for September 06, 2017

All times are specified in Local Standard Time (LST). Add 1 hour to adjust for Daylight Saving Time where and when it is observed.

RESOLUTE BAY A
NUNAVUT

74°43'01.000" N
94°58'10.000" W
67.70 m
2403498
71924
YRB

Download Data

Hourly Data (September 2017)
Hourly Data Report for September 6, 2017
Temp Definition
°C
Dew Point Temp Definition
°C
Rel Hum Definition
%
Wind Dir Definition
10's deg

Wind Spd Definition
km/h
Visibility Definition
km
Stn Press Definition
kPa
Hmdx Definition


Wind Chill Definition


Weather Definition


TIME
00:00 Legend Double Dagger -5.1 -6.7 88 33 26 19.3 100.68   -13 Cloudy
01:00 Legend Double Dagger -5.2 -6.8 88 33 24 16.1 100.69   -12 LegendNANA
02:00 Legend Double Dagger -4.9 -6.5 89 31 29 24.1 100.67   -13 LegendNANA
03:00 Legend Double Dagger -4.2 -5.6 90 30 19 16.1 100.66   -10 Cloudy
04:00 Legend Double Dagger -4.3 -5.7 90 28 26 24.1 100.65   -12 LegendNANA
05:00 Legend Double Dagger -3.9 -5.0 92 29 21 24.1 100.63   -10 LegendNANA
06:00 Legend Double Dagger -3.0 -4.5 90 30 27 24.1 100.58   -10 Cloudy
07:00 Legend Double Dagger -3.0 -4.9 87 32 21 24.1 100.55   -9 LegendNANA
08:00 Legend Double Dagger -3.5 -5.1 89 30 23 24.1 100.52   -10 LegendNANA
09:00 Legend Double Dagger -3.4 -5.2 87 30 26 24.1 100.49   -10 Cloudy
10:00 Legend Double Dagger -3.2 -5.4 85 30 25 24.1 100.47   -10 LegendNANA
11:00 Legend Double Dagger -3.1 -5.1 86 30 25 24.1 100.44   -10 LegendNANA
12:00 Legend Double Dagger -3.3 -5.8 83 30 25 24.1 100.42   -10 Mainly Clear
13:00 Legend Double Dagger -3.0 -5.7 82 28 32 24.1 100.43   -11 LegendNANA
14:00 Legend Double Dagger -2.8 -5.4 83 29 29 24.1 100.42   -10 LegendNANA
15:00 Legend Double Dagger -2.9 -5.0 85 30 22 24.1 100.43   -9 Mostly Cloudy
16:00 Legend Double Dagger -2.8 -4.8 86 28 26 24.1 100.43   -10 LegendNANA
17:00 Legend Double Dagger -2.7 -5.0 85 28 23 24.1 100.40   -9 LegendNANA
18:00 Legend Double Dagger -2.8 -4.8 86 27 26 24.1 100.36   -10 Mostly Cloudy
19:00 Legend Double Dagger -2.9 -5.1 85 27 18 24.1 100.34   -9 LegendNANA
20:00 Legend Double Dagger -3.0 -5.3 85 27 19 24.1 100.33   -9 LegendNANA
21:00 Legend Double Dagger -3.1 -5.7 83 28 18 24.1 100.29   -9 Cloudy
22:00 Legend Double Dagger -3.3 -5.9 82 28 20 24.1 100.27   -9 LegendNANA
23:00 Legend Double Dagger -3.2 -6.1 81 27 23 24.1 100.26   -10 LegendNANA

Notes on Data Quality.

Legend

  • E = Estimated
  • M = Missing
  • NA = Not Available
  • ‡ = Partner data that is not subject to review by the National Climate Archives
Date modified: